Location: Czekanka
(50.4925°N, 19.2643°E)
Time: 03:32:41
(UTC+00:00)

CENTAUR R/B - Visible Passes

Search period start: 15 September 2024 00:00
Search period end: 25 September 2024 00:00
Orbit: 662 x 1522 km, 63.4° (Epoch: 14 September)

Date Brightness Start Highest point End Pass type
(mag) Time Alt. Az. Time Alt. Az. Time Alt. Az.
15 Sep 4.3 00:14:34 17° ESE 00:15:00 17° ESE 00:19:05 10° ENE visible
15 Sep 2.5 02:01:43 38° SSW 02:04:13 80° SE 02:11:27 10° NE visible
16 Sep 2.8 01:14:33 47° SSE 01:15:32 52° ESE 01:22:19 10° NE visible
16 Sep 3.1 03:01:41 17° WSW 03:06:17 50° NNW 03:13:39 10° NE visible
17 Sep 3.6 00:27:20 32° ESE 00:27:20 32° ESE 00:33:01 10° NE visible
17 Sep 2.7 02:14:28 36° WSW 02:17:08 68° NW 02:24:33 10° NE visible
17 Sep 4.4 23:40:07 18° E 23:40:07 18° E 23:43:18 10° ENE visible
18 Sep 2.3 01:27:15 67° SSW 01:28:11 86° SE 01:35:28 10° NE visible
18 Sep 3.6 03:14:23 13° W 03:19:41 38° NNW 03:26:54 10° NE visible
19 Sep 2.9 00:40:00 55° ESE 00:40:00 55° ESE 00:46:22 10° NE visible
19 Sep 3.2 02:27:07 27° W 02:30:20 48° NNW 02:37:41 10° NE visible
19 Sep 3.9 23:52:43 30° E 23:52:43 30° E 23:57:06 10° NE visible
20 Sep 2.6 01:39:51 53° W 01:41:09 64° NW 01:48:34 10° NE visible
20 Sep 4.0 03:27:19 10° WNW 03:33:15 33° N 03:40:20 10° NE visible
20 Sep 4.6 23:05:25 16° ENE 23:05:25 16° ENE 23:07:29 10° ENE visible
21 Sep 2.5 00:52:33 81° NE 00:52:33 81° NE 00:59:29 10° NE visible
21 Sep 3.7 02:39:40 19° WNW 02:43:45 37° NNW 02:50:57 10° NE visible
22 Sep 3.4 00:05:13 45° ENE 00:05:13 45° ENE 00:10:23 10° NE visible
22 Sep 3.2 01:52:21 36° WNW 01:54:23 46° NNW 02:01:42 10° NE visible
22 Sep 4.2 03:40:51 10° WNW 03:46:55 31° N 03:54:05 10° ENE visible
22 Sep 4.2 23:17:53 25° ENE 23:17:53 25° ENE 23:21:09 10° NE visible
23 Sep 2.8 01:05:01 60° NW 01:05:10 60° NW 01:12:34 10° NE visible
23 Sep 4.1 02:52:08 13° WNW 02:57:20 32° N 03:04:26 10° NE visible
23 Sep 4.9 22:30:32 14° ENE 22:30:32 14° ENE 22:31:38 10° ENE visible
24 Sep 3.1 00:17:39 57° NE 00:17:39 57° NE 00:23:29 10° NE visible
24 Sep 3.8 02:04:47 25° WNW 02:07:49 36° NNW 02:14:59 10° NE visible
24 Sep 4.3 03:54:14 10° NW 04:00:36 32° N 04:08:04 10° ENE visible
24 Sep 3.9 23:30:17 35° NE 23:30:17 35° NE 23:34:24 10° NE visible
